Date String (YYYY-MM-DD hh:mm:ss) UTC,Instrument flags,Ambient pressure (hPa),Sample flow (lpm),Bypass flow (lpm),Sample temperature (°C),Ambient temperature (°C),ASC tube jacket temperature (°C),LED temperature (°C),Box temperature (°C),Sample RH (%),Span deviation,Mass concentration (μg/m³),Mass concentration (μg/m³),Mass concentration (μg/m³)
DateTimeUTC,F1_M11,P_M11,Q1_M11,Q2_M11,T1_M11,T2_M11,T3_M11,T4_M11,T5_M11,U1_M11,ZSPAN_M11,X0_M11,X2_M11,X1_M11
2022-09-20 03:00:00,,0825.9,5.00,0.00,30.0,27.2,00.0,38.6,31.9,09.9,0000.0,0005.32,0001.37,0001.11
2022-09-20 03:01:00,,0825.9,4.99,0.00,30.0,26.8,00.0,38.5,31.8,09.9,0000.0,0005.00,0001.35,0001.11
2022-09-20 03:02:00,,0825.9,5.00,0.00,29.9,27.0,00.0,38.5,31.6,09.9,0000.0,0004.55,0001.32,0001.11
2022-09-20 03:03:00,,0825.9,5.00,0.00,29.8,27.3,00.0,38.5,31.5,09.8,0000.0,0003.99,0001.32,0001.11
2022-09-20 03:04:00,,0825.9,4.99,0.00,29.8,27.6,00.0,38.5,31.5,09.9,0000.0,0003.87,0001.29,0001.10
2022-09-20 03:05:00,,0825.9,5.00,0.00,29.8,27.9,00.0,38.5,31.6,09.9,0000.0,0003.76,0001.29,0001.10
2022-09-20 03:06:00,,0825.9,5.00,0.00,29.8,28.1,00.0,38.5,31.6,09.9,0000.0,0003.87,0001.32,0001.10
2022-09-20 03:07:00,,0825.9,4.99,0.00,29.8,28.3,00.0,38.5,31.7,10.0,0000.0,0003.67,0001.35,0001.10
2022-09-20 03:08:00,,0825.9,5.00,0.00,29.8,28.4,00.0,38.5,31.7,10.0,0000.0,0002.49,0001.35,0001.10
2022-09-20 03:09:00,,0826.0,5.01,0.00,29.9,28.5,00.0,38.5,31.7,09.9,0000.0,0002.07,0001.36,0001.10
2022-09-20 03:10:00,,0826.0,4.99,0.00,29.9,28.6,00.0,38.5,31.7,09.8,0000.0,0002.10,0001.37,0001.10
2022-09-20 03:11:00,,0826.0,4.99,0.00,29.9,28.7,00.0,38.6,31.8,09.8,0000.0,0002.03,0001.36,0001.10
2022-09-20 03:12:00,,0826.0,5.01,0.00,29.9,28.8,00.0,38.6,31.9,09.8,0000.0,0001.95,0001.37,0001.10
2022-09-20 03:13:00,,0826.0,5.00,0.00,30.0,28.9,00.0,38.6,31.9,09.7,0000.0,0001.92,0001.37,0001.10
2022-09-20 03:14:00,,0826.0,4.99,0.00,30.0,28.9,00.0,38.6,31.9,09.6,0000.0,0002.11,0001.36,0001.09
2022-09-20 03:15:00,,0826.0,5.01,0.00,30.0,28.6,00.0,38.6,32.0,09.6,0000.0,0003.75,0001.36,0001.09
2022-09-20 03:16:00,,0826.0,5.01,0.00,30.0,27.2,00.0,38.6,31.9,09.6,0000.0,0003.71,0001.34,0001.09
2022-09-20 03:17:00,,0825.9,5.00,0.00,30.0,26.9,00.0,38.6,31.8,09.7,0000.0,0003.62,0001.30,0001.09
2022-09-20 03:18:00,,0826.0,4.99,0.00,29.9,27.0,00.0,38.6,31.6,09.8,0000.0,0003.61,0001.28,0001.09
2022-09-20 03:19:00,,0825.9,5.00,0.00,29.9,27.3,00.0,38.5,31.5,09.8,0000.0,0003.54,0001.25,0001.08
2022-09-20 03:20:00,,0825.9,5.00,0.00,29.8,27.6,00.0,38.5,31.6,10.0,0000.0,0003.54,0001.26,0001.08
2022-09-20 03:21:00,,0826.0,5.00,0.00,29.8,27.9,00.0,38.5,31.6,09.9,0000.0,0003.60,0001.28,0001.09
2022-09-20 03:22:00,,0826.0,5.00,0.00,29.8,28.1,00.0,38.5,31.6,09.8,0000.0,0003.60,0001.28,0001.07
2022-09-20 03:23:00,,0826.0,5.00,0.00,29.8,28.2,00.0,38.5,31.7,09.8,0000.0,0003.64,0001.28,0001.06
2022-09-20 03:24:00,,0826.0,5.00,0.00,29.9,28.4,00.0,38.5,31.7,09.7,0000.0,0003.63,0001.28,0001.06
2022-09-20 03:25:00,,0826.0,5.00,0.00,29.9,28.5,00.0,38.5,31.7,09.8,0000.0,0003.38,0001.26,0001.06
2022-09-20 03:26:00,,0826.0,4.99,0.00,29.9,28.6,00.0,38.6,31.8,09.8,0000.0,0001.81,0001.24,0001.05
2022-09-20 03:27:00,,0826.0,5.00,0.00,29.9,28.7,00.0,38.6,31.8,09.8,0000.0,0002.69,0001.24,0001.04
2022-09-20 03:28:00,,0826.0,5.01,0.00,30.0,28.8,00.0,38.6,31.9,09.6,0000.0,0002.68,0001.25,0001.04
2022-09-20 03:29:00,,0826.0,5.00,0.00,30.0,28.8,00.0,38.6,31.9,09.6,0000.0,0002.63,0001.25,0001.04
2022-09-20 03:30:00,,0826.0,4.99,0.00,30.0,28.9,00.0,38.6,31.9,09.6,0000.0,0002.66,0001.27,0001.05
2022-09-20 03:31:00,,0826.0,5.00,0.00,30.1,28.5,00.0,38.6,32.0,09.7,0000.0,0002.68,0001.25,0001.03
2022-09-20 03:32:00,,0826.0,5.01,0.00,30.0,27.2,00.0,38.6,31.9,09.7,0000.0,0002.58,0001.21,0001.03
2022-09-20 03:33:00,,0826.0,5.00,0.00,30.0,26.8,00.0,38.6,31.8,09.7,0000.0,0002.59,0001.21,0001.04
2022-09-20 03:34:00,,0826.0,5.00,0.00,29.9,27.0,00.0,38.6,31.7,09.8,0000.0,0002.54,0001.21,0001.04
2022-09-20 03:35:00,,0826.0,5.00,0.00,29.9,27.3,00.0,38.6,31.6,09.9,0000.0,0002.52,0001.20,0001.05
2022-09-20 03:36:00,,0826.0,5.01,0.00,29.8,27.6,00.0,38.5,31.6,10.0,0000.0,0002.55,0001.21,0001.05
2022-09-20 03:37:00,,0826.0,5.00,0.00,29.8,27.9,00.0,38.5,31.6,10.0,0000.0,0003.18,0001.23,0001.05
2022-09-20 03:38:00,,0826.0,5.00,0.00,29.8,28.1,00.0,38.5,31.6,09.9,0000.0,0002.63,0001.24,0001.05
2022-09-20 03:39:00,,0826.0,4.99,0.00,29.8,28.3,00.0,38.5,31.7,09.8,0000.0,0002.60,0001.23,0001.05
2022-09-20 03:40:00,,0826.0,5.01,0.00,29.9,28.4,00.0,38.6,31.7,09.9,0000.0,0002.57,0001.22,0001.05
2022-09-20 03:41:00,,0826.0,4.98,0.00,29.9,28.5,00.0,38.6,31.7,09.7,0000.0,0002.51,0001.19,0001.04
2022-09-20 03:42:00,,0826.0,5.01,0.00,29.9,28.6,00.0,38.6,31.8,09.6,0000.0,0002.46,0001.19,0001.05
2022-09-20 03:43:00,,0826.0,5.00,0.00,29.9,28.7,00.0,38.6,31.8,09.7,0000.0,0002.49,0001.19,0001.04
2022-09-20 03:44:00,,0826.0,5.00,0.00,30.0,28.8,00.0,38.6,31.9,09.7,0000.0,0002.47,0001.18,0001.04
2022-09-20 03:45:00,,0826.0,5.01,0.00,30.0,28.8,00.0,38.6,31.9,09.8,0000.0,0002.69,0001.17,0001.04
2022-09-20 03:46:00,,0826.0,5.00,0.00,30.0,28.9,00.0,38.6,31.9,09.9,0000.0,0003.14,0001.16,0001.04
2022-09-20 03:47:00,,0826.0,4.99,0.00,30.1,28.9,00.0,38.7,32.0,09.9,0000.0,0003.10,0001.14,0001.04
2022-09-20 03:48:00,,0826.0,5.00,0.00,30.1,27.8,00.0,38.7,31.9,09.9,0000.0,0002.25,0001.12,0001.03
2022-09-20 03:49:00,,0825.9,5.00,0.00,30.0,26.9,00.0,38.6,31.9,09.8,0000.0,0002.04,0001.12,0001.03
2022-09-20 03:50:00,,0826.0,5.00,0.00,30.0,26.9,00.0,38.6,31.8,09.9,0000.0,0002.05,0001.12,0001.03
2022-09-20 03:51:00,,0826.0,5.00,0.00,29.9,27.1,00.0,38.6,31.6,10.0,0000.0,0002.13,0001.13,0001.03
2022-09-20 03:52:00,,0826.0,5.00,0.00,29.9,27.4,00.0,38.6,31.6,10.1,0000.0,0002.25,0001.16,0001.03
2022-09-20 03:53:00,,0826.0,4.99,0.00,29.8,27.7,00.0,38.5,31.6,10.2,0000.0,0002.30,0001.18,0001.03
2022-09-20 03:54:00,,0826.0,5.01,0.00,29.8,28.0,00.0,38.5,31.6,10.1,0000.0,0002.26,0001.17,0001.03
2022-09-20 03:55:00,,0826.0,5.00,0.00,29.9,28.2,00.0,38.5,31.7,09.9,0000.0,0002.37,0001.18,0001.03
2022-09-20 03:56:00,,0826.0,5.00,0.00,29.9,28.3,00.0,38.6,31.7,10.0,0000.0,0002.46,0001.20,0001.03
2022-09-20 03:57:00,,0826.0,4.99,0.00,29.9,28.4,00.0,38.6,31.7,10.0,0000.0,0001.78,0001.20,0001.03
2022-09-20 03:58:00,,0826.0,5.01,0.00,29.9,28.5,00.0,38.6,31.7,10.1,0000.0,0001.82,0001.21,0001.03
2022-09-20 03:59:00,,0826.0,4.99,0.00,29.9,28.6,00.0,38.6,31.8,10.1,0000.0,0001.87,0001.24,0001.04
